Temperature
6 7 6 6 6 6 6 6 6 6 6 8 9 9 9 9 9 9 10 10 10 10 10 9 9 8 7 6 5 4 3 3 3 3 3 3 3 3 3 3 4 4 4 4
5 6 6 5 5 5 6 6 6 6 6 7 9 9 9 9 9 9 10 11 11 10 10 9 8 7 6 5 4 3 2 2 2 2 1 2 2 2 3 3 3 3 3 3
4 5 6 5 5 5 5 5 6 7 8 8 8 7 9 10 10 11 11 11 11 11 10 9 8 7 5 4 3 2 2 1 1 1 1 1 1 2 2 2 2 2 2 2
3 5 4 6 7 6 6 6 6 6 7 7 8 10 11 11 11 11 11 11 11 11 10 9 7 6 5 4 2 2 1 0 0 0 0 1 1 1 1 1 1 2 2 2
3 3 4 5 6 6 5 6 6 6 7 7 8 8 8 10 11 11 12 11 11 10 9 8 7 6 5 3 2 1 1 0 0 0 0 0 1 1 1 1 1 1 1 1
4 5 5 7 7 7 6 6 7 6 6 6 6 6 7 10 11 11 11 11 10 9 9 8 7 6 5 4 3 2 1 1 1 0 1 1 1 1 1 1 1 1 1 1
4 5 4 6 6 7 6 7 7 7 7 6 5 7 9 10 10 10 10 10 9 9 8 7 6 6 5 4 3 2 2 1 1 1 1 1 1 1 1 1 1 1 1 1
4 5 5 7 6 6 6 7 7 7 7 7 7 8 8 9 10 10 9 9 9 8 8 7 6 6 5 4 3 3 2 2 2 2 1 1 1 1 1 1 1 1 0 0
4 5 6 6 6 7 6 6 7 7 7 7 7 8 8 9 9 9 8 8 8 8 7 6 6 6 5 4 3 3 3 2 2 2 1 1 1 1 1 1 1 1 0 0
3 4 5 6 6 6 6 6 6 7 7 7 8 8 8 8 8 8 8 8 7 7 7 6 6 6 5 4 4 3 3 2 2 2 2 1 1 1 1 1 1 1 0 0
3 3 4 6 5 5 5 6 6 7 7 7 7 8 8 8 8 8 7 7 7 7 6 6 6 5 5 4 4 3 3 2 2 2 2 1 1 1 1 1 1 0 0 -0
2 3 2 3 4 4 5 5 5 6 6 7 7 7 7 7 7 7 7 7 7 6 6 6 5 5 4 4 4 3 3 3 2 2 2 1 1 1 1 1 0 0 -0 -0
1 2 2 2 3 3 3 4 5 5 5 6 6 6 7 7 7 7 6 6 6 6 6 5 5 5 4 4 4 3 3 3 2 2 2 1 1 1 1 0 0 -0 -0 -1
1 1 1 2 2 2 3 3 4 4 5 5 6 6 6 6 6 6 6 6 6 6 5 5 5 5 4 4 4 3 3 3 2 2 2 1 1 1 1 0 -0 -0 -1 -1
0 0 0 1 1 2 2 2 3 3 4 4 4 5 5 5 5 5 5 5 5 5 5 5 5 5 4 4 3 3 3 3 2 2 2 1 1 1 0 0 -0 -0 -1 -1
-1 -0 -0 0 0 1 1 1 2 2 2 3 3 3 3 4 4 4 4 4 4 5 4 4 4 4 3 3 3 3 3 2 2 2 1 1 1 1 0 0 -0 -1 -1 -1
-2 -2 -1 -1 -1 -0 0 0 1 1 1 2 2 2 3 3 3 3 3 3 3 3 4 4 4 3 3 3 3 2 2 2 2 1 1 1 1 0 -0 -1 -1 -1 -1 -2
-2 -2 -2 -2 -2 -1 -1 -0 0 0 1 1 1 2 2 2 2 2 2 2 2 2 2 3 3 3 3 2 2 2 2 1 1 1 1 1 0 -0 -1 -1 -1 -2 -2 -2
-2 -2 -2 -2 -2 -2 -2 -1 -1 -1 -0 0 1 1 1 1 1 1 1 2 2 2 2 2 2 2 2 2 2 1 1 1 1 0 0 0 -0 -0 -1 -1 -1 -2 -2 -2
-2 -2 -2 -2 -2 -2 -2 -2 -2 -1 -1 -0 -0 0 0 0 0 1 1 1 1 1 1 1 1 1 1 1 1 1 1 0 0 -0 -0 -0 -0 -1 -1 -1 -2 -2 -3 -3
-2 -2 -2 -3 -3 -3 -3 -2 -2 -2 -1 -1 -1 -0 -0 -0 -0 0 0 0 0 0 0 1 1 1 1 1 0 0 -0 -0 -1 -1 -1 -1 -1 -1 -2 -2 -2 -3 -3 -3
-2 -2 -3 -3 -3 -3 -3 -3 -2 -2 -2 -1 -1 -1 -1 -1 -0 -0 -0 -0 -0 -0 -0 -0 0 0 0 -0 -0 -0 -1 -1 -1 -1 -1 -2 -2 -2 -2 -3 -3 -3 -3 -4
-2 -2 -3 -3 -3 -3 -3 -3 -3 -2 -2 -2 -1 -1 -1 -1 -1 -1 -1 -1 -1 -1 -1 -1 -1 -1 -1 -1 -1 -1 -1 -2 -2 -2 -2 -2 -3 -3 -3 -3 -4 -4 -4 -4
-2 -2 -2 -3 -3 -3 -3 -2 -3 -3 -3 -2 -2 -2 -2 -2 -2 -2 -2 -1 -1 -1 -1 -1 -1 -1 -1 -1 -2 -2 -2 -2 -2 -3 -3 -3 -3 -3 -3 -4 -4 -4 -4 -4
-2 -2 -2 -3 -3 -2 -2 -2 -3 -3 -3 -2 -2 -2 -2 -2 -2 -2 -2 -2 -2 -2 -2 -1 -1 -2 -2 -2 -2 -2 -2 -3 -3 -3 -3 -3 -3 -4 -4 -4 -4 -4 -4 -4
-2 -2 -2 -3 -3 -3 -3 -3 -3 -3 -2 -2 -2 -2 -2 -2 -2 -2 -2 -2 -2 -2 -2 -2 -2 -2 -2 -2 -2 -3 -3 -3 -3 -3 -3 -4 -4 -4 -4 -4 -4 -4 -4 -4
-2 -2 -3 -3 -2 -3 -3 -3 -3 -3 -3 -2 -2 -2 -2 -2 -2 -2 -2 -3 -3 -3 -3 -2 -2 -2 -2 -3 -3 -3 -3 -3 -3 -3 -3 -4 -4 -4 -4 -4 -4 -4 -5 -5
Wind_Speed
2 1 4 6 8 12 13 11 10 9 10 12 9 7 6 7 8 8 8 9 10 9 8 7 7 6 5 4 4 4 4 3 3 3 4 5 6 6 6 7 7 7 7 7
1 0 3 5 9 12 15 13 15 13 15 9 8 5 5 8 10 11 11 11 10 9 9 9 8 7 6 5 5 4 4 4 4 4 5 5 6 6 7 7 7 7 7 7
2 2 2 7 10 13 8 9 10 17 17 7 8 9 11 11 12 14 13 12 12 12 11 10 9 8 7 6 5 5 5 4 4 5 5 5 6 7 7 6 6 7 7 7
2 2 6 8 2 6 9 10 11 11 9 8 13 12 10 10 13 13 12 11 11 10 10 8 8 7 7 7 6 5 5 5 5 5 6 6 6 6 6 5 5 5 6 6
3 3 8 8 4 5 6 7 8 12 14 11 8 5 7 9 11 12 11 9 9 9 8 9 9 9 8 7 6 6 5 5 5 5 6 6 6 5 5 5 5 4 4 5
3 2 5 5 3 2 3 5 4 6 10 8 4 6 8 6 8 8 7 6 8 9 8 10 9 9 9 8 7 6 6 5 5 5 6 6 6 5 4 4 4 3 3 3
4 4 7 7 4 3 1 5 6 5 7 6 7 8 4 3 5 5 6 7 9 10 9 9 10 10 9 8 7 7 6 6 6 5 5 6 5 4 4 4 3 2 1 1
5 5 7 4 2 3 5 5 6 6 5 4 5 3 0 2 5 6 7 7 9 9 8 8 10 10 9 8 7 7 7 6 6 6 5 5 5 4 4 4 3 2 0 2
7 8 4 2 3 3 3 5 5 5 6 2 1 1 1 2 4 5 6 7 7 8 8 8 9 9 9 8 8 8 7 7 6 6 5 5 5 5 4 4 3 3 3 3
5 6 6 5 3 4 5 5 5 4 4 2 1 1 2 3 4 4 5 6 7 8 9 9 9 9 8 8 9 9 8 7 6 6 6 5 5 5 5 5 4 4 4 4
5 6 8 6 6 7 8 7 5 5 3 2 1 1 2 3 4 5 5 6 7 9 9 9 9 9 9 9 10 10 9 8 7 7 7 6 6 5 6 5 6 5 5 4
5 4 5 9 9 9 8 8 7 5 4 3 2 2 2 2 3 4 5 6 7 8 9 8 9 10 10 11 11 11 9 9 7 7 6 6 5 4 8 8 9 11 9 6
7 8 9 11 10 7 7 8 7 6 5 4 3 2 2 2 2 3 4 6 8 9 9 9 10 10 11 12 12 12 11 10 8 7 7 7 6 6 5 5 8 9 9 9
9 8 8 7 9 9 8 7 5 4 3 2 2 2 1 1 1 2 4 5 6 6 7 8 9 10 10 12 13 13 11 11 10 8 8 7 7 7 6 5 4 4 6 9
9 9 10 11 10 8 7 6 5 4 3 3 2 2 2 2 3 3 3 3 4 5 6 7 8 9 9 12 13 13 11 9 9 8 8 8 7 7 6 6 6 5 3 4
14 12 10 10 10 9 8 6 6 5 4 3 3 3 3 3 4 3 3 2 3 5 5 6 8 7 8 10 11 10 10 12 11 8 8 8 7 7 7 7 6 6 6 5
12 11 11 12 11 10 8 6 6 5 4 4 4 4 3 3 3 3 4 3 3 4 4 5 6 4 6 8 9 8 7 9 14 9 8 8 8 8 8 7 7 7 6 6
9 10 10 11 10 9 8 6 5 5 4 4 4 3 3 3 3 4 4 4 3 3 3 3 4 3 4 6 7 6 6 7 8 8 8 8 8 7 7 7 7 7 5 5
9 9 9 9 9 8 7 6 6 5 5 4 4 4 3 3 3 4 3 3 2 3 4 4 4 2 3 5 6 5 6 7 7 7 7 9 9 7 7 7 7 7 6 5
8 8 8 8 7 6 6 6 6 5 5 5 4 4 3 4 4 4 3 2 2 3 5 4 3 2 2 4 5 4 5 6 7 6 7 7 7 7 7 7 7 6 6 6
8 8 7 7 7 6 5 6 5 6 5 5 4 4 4 4 4 4 3 2 3 5 5 5 2 1 2 3 5 4 5 5 6 6 6 7 7 7 7 7 7 7 6 6
7 7 7 6 6 6 5 5 5 5 5 4 4 4 4 4 5 4 2 1 4 7 5 3 2 3 3 3 3 3 4 5 5 5 5 6 6 6 6 7 7 6 6 6
8 7 7 7 6 6 6 5 4 4 5 5 4 4 4 4 3 3 3 3 4 7 5 3 4 5 4 2 3 4 4 5 5 5 5 5 6 6 6 6 6 6 6 6
8 8 8 7 6 6 7 5 4 4 4 4 4 3 3 3 3 2 2 6 8 7 4 5 6 6 4 1 2 3 4 4 4 4 5 5 5 5 5 5 6 6 6 6
8 8 8 7 7 7 7 6 5 5 4 4 4 3 2 2 3 3 4 4 7 6 4 5 7 6 2 1 2 2 3 4 4 4 5 5 5 5 5 5 6 5 5 6
8 8 8 8 7 6 5 4 4 4 4 4 4 3 2 2 2 3 3 4 5 5 4 3 4 4 2 2 2 2 3 3 4 4 4 5 5 5 5 6 7 6 6 6
8 7 7 7 6 6 6 5 6 6 5 4 4 3 2 2 2 2 3 3 3 3 3 3 3 3 3 2 2 2 2 3 3 3 4 4 4 5 5 6 5 5 5 5
Wind_Direction
238 215 167 201 207 203 211 217 224 236 232 246 257 261 241 208 191 184 190 193 193 190 183 177 173 172 169 166 156 144 138 128 113 101 93 90 84 79 75 72 71 67 67 67
339 316 204 243 231 219 225 230 237 250 257 240 250 247 226 205 195 199 205 206 200 190 185 185 182 177 173 169 163 154 151 144 134 120 107 101 95 89 83 77 71 66 63 64
266 331 1 265 230 212 210 211 210 238 250 232 235 234 228 214 205 209 210 206 199 196 192 186 181 173 173 167 156 151 149 145 139 130 119 110 105 98 91 84 77 69 62 62
142 90 242 245 260 207 221 242 227 242 258 235 233 239 233 214 205 212 210 204 199 190 181 171 165 162 158 154 154 151 149 147 143 137 127 117 110 103 97 89 81 74 63 56
143 235 278 296 281 195 200 266 237 240 256 255 254 263 261 228 210 212 208 197 188 174 163 157 160 158 152 155 155 154 157 154 149 142 135 129 121 114 109 103 89 78 69 60
162 235 259 267 301 189 146 291 285 244 259 259 201 231 253 220 200 197 176 159 151 145 144 156 160 155 156 162 164 168 163 154 146 143 140 135 129 123 113 112 111 101 77 57
195 240 269 265 278 138 184 278 309 290 272 251 214 229 255 178 162 152 141 139 143 148 156 164 159 158 164 169 176 166 154 150 147 143 140 137 129 121 124 123 122 111 77 14
187 217 257 281 130 174 245 291 309 308 297 269 248 255 229 139 137 136 134 138 148 153 157 159 162 165 171 180 168 155 153 154 154 151 153 146 138 136 139 147 152 165 233 294
202 223 250 299 235 271 291 297 305 314 319 305 267 230 146 136 140 145 149 153 156 157 158 165 173 176 182 177 160 160 162 165 163 161 161 155 160 165 168 177 186 204 221 248
271 277 294 293 299 324 316 295 300 309 317 315 297 214 164 156 160 163 164 167 164 164 174 184 187 189 184 166 164 167 174 177 175 177 181 179 184 185 188 194 202 214 221 236
281 304 325 324 338 333 325 322 320 326 328 312 273 246 203 186 185 184 183 178 178 187 196 196 189 193 183 171 171 177 182 184 186 191 191 195 202 204 203 209 202 205 214 215
281 311 300 295 307 315 309 310 308 306 310 322 293 264 245 219 202 191 191 186 192 201 206 200 192 196 189 181 180 182 189 193 195 194 193 196 201 223 237 228 234 233 222 210
278 294 285 283 295 304 300 300 302 292 279 286 302 291 258 238 219 204 202 200 207 212 212 205 200 202 195 187 187 192 196 195 193 194 195 196 198 204 223 235 238 238 235 234
294 300 294 295 301 305 298 297 299 300 308 298 298 320 306 264 245 227 232 228 224 220 216 209 209 211 197 189 192 199 200 198 195 197 196 198 200 202 202 205 221 242 244 245
315 308 295 298 301 303 301 300 302 304 317 324 335 343 334 302 281 273 271 261 235 226 223 215 219 220 194 190 196 200 200 200 198 196 196 199 198 198 201 208 215 223 230 251
314 309 307 308 308 311 312 308 300 299 304 302 312 319 315 300 292 293 296 273 233 240 237 227 230 223 195 193 197 201 204 201 192 193 194 196 197 200 204 208 215 220 227 227
322 323 326 321 315 312 309 306 302 302 303 302 305 312 316 315 311 313 313 302 268 262 256 242 245 232 202 196 194 199 198 199 197 196 199 199 198 203 205 205 211 219 226 222
311 309 312 313 314 314 315 321 326 323 316 316 320 326 330 320 307 309 313 315 312 305 298 279 265 235 210 199 194 191 190 193 195 201 200 200 202 201 201 205 212 218 222 228
318 319 322 325 327 325 326 334 336 332 333 334 329 321 314 314 315 315 321 328 328 317 323 317 298 240 221 211 192 187 188 192 197 201 201 206 206 202 203 207 213 214 212 213
312 316 319 322 328 331 332 334 335 334 338 339 336 338 345 344 338 333 334 335 349 315 312 315 313 275 236 217 192 185 191 196 201 202 200 203 205 204 204 209 212 213 213 217
306 309 313 316 319 323 329 332 332 329 332 341 346 342 337 337 342 341 339 340 347 336 330 332 331 296 241 221 198 188 193 199 205 206 205 207 209 209 208 209 212 215 215 219
297 294 296 300 305 309 315 319 320 321 326 334 339 339 338 340 342 338 336 338 328 333 337 329 319 296 273 236 195 194 201 207 210 210 210 210 210 212 212 210 213 217 217 218
289 284 284 284 286 290 295 295 299 308 314 317 321 325 325 320 318 321 323 331 325 330 335 311 313 310 291 237 202 204 207 210 214 215 216 214 213 213 213 213 216 217 217 220
288 284 279 276 275 278 283 283 282 282 284 288 290 294 300 309 311 297 297 317 329 332 330 320 325 319 310 239 214 213 213 215 217 217 217 215 214 214 216 218 221 221 222 225
283 281 277 273 271 267 266 272 277 273 273 275 277 273 264 255 269 296 307 313 326 334 330 332 335 333 333 270 242 234 226 225 225 217 216 219 219 219 221 221 223 224 224 227
281 280 275 266 262 262 260 255 257 259 261 272 277 265 257 261 275 290 302 313 321 335 339 331 332 336 332 300 269 258 250 255 259 242 223 222 225 225 226 227 229 229 230 232
281 276 276 275 265 252 247 245 248 253 245 246 261 260 252 261 276 288 299 308 318 325 327 330 333 334 330 319 300 285 271 260 255 250 241 234 230 230 231 231 232 231 230 232
Height
1487 1486 1488 1489 1490 1491 1493 1492 1495 1490 1489 1479 1477 1475 1475 1475 1477 1479 1481 1484 1485 1487 1489 1491 1492 1492 1492 1491 1490 1490 1489 1489 1490 1490 1491 1491 1492 1492 1493 1493 1493 1493 1492 1492
1489 1487 1488 1489 1488 1488 1487 1486 1485 1484 1479 1474 1473 1472 1472 1472 1474 1475 1477 1479 1482 1484 1486 1487 1488 1488 1488 1487 1487 1487 1487 1487 1487 1488 1489 1489 1490 1491 1491 1492 1492 1492 1491 1491
1493 1490 1486 1489 1479 1480 1480 1477 1478 1476 1468 1469 1469 1468 1467 1467 1469 1470 1472 1475 1478 1480 1482 1484 1485 1485 1485 1484 1484 1484 1484 1485 1485 1486 1487 1488 1489 1490 1490 1491 1491 1491 1491 1491
1497 1492 1496 1478 1471 1471 1473 1471 1471 1467 1464 1463 1462 1461 1461 1462 1464 1465 1468 1471 1474 1476 1478 1480 1481 1481 1481 1481 1481 1481 1482 1483 1484 1485 1485 1487 1488 1489 1490 1490 1491 1491 1491 1491
1497 1496 1489 1476 1469 1470 1472 1469 1464 1463 1460 1459 1458 1459 1457 1457 1459 1461 1464 1467 1470 1473 1475 1476 1477 1478 1478 1478 1479 1479 1480 1481 1482 1483 1484 1486 1487 1488 1489 1490 1491 1491 1491 1490
1493 1490 1486 1473 1467 1466 1469 1468 1462 1460 1458 1456 1457 1459 1453 1452 1454 1457 1460 1463 1466 1469 1471 1473 1474 1475 1475 1476 1477 1478 1478 1480 1481 1482 1484 1485 1487 1488 1489 1490 1490 1490 1490 1490
1488 1487 1482 1470 1466 1467 1473 1469 1461 1458 1455 1453 1453 1451 1450 1450 1452 1454 1457 1460 1463 1466 1468 1470 1471 1472 1473 1474 1475 1477 1477 1479 1480 1481 1483 1484 1486 1487 1488 1489 1489 1489 1489 1489
1485 1485 1482 1467 1467 1469 1468 1463 1460 1456 1454 1451 1449 1449 1449 1449 1450 1452 1455 1458 1460 1463 1465 1467 1468 1470 1471 1473 1474 1475 1477 1478 1479 1481 1482 1484 1485 1486 1487 1488 1488 1488 1488 1488
1480 1476 1468 1467 1466 1466 1464 1462 1459 1457 1454 1451 1450 1449 1449 1450 1451 1452 1454 1456 1458 1460 1462 1464 1466 1468 1470 1472 1473 1474 1475 1477 1478 1480 1481 1483 1484 1485 1486 1486 1487 1486 1487 1486
1475 1469 1467 1465 1464 1463 1462 1461 1458 1456 1454 1452 1451 1450 1450 1451 1451 1452 1454 1455 1457 1458 1460 1462 1464 1466 1468 1470 1471 1472 1474 1475 1477 1478 1480 1481 1482 1483 1484 1484 1484 1484 1484 1484
1474 1470 1466 1462 1463 1462 1460 1458 1457 1455 1454 1452 1451 1451 1451 1451 1451 1452 1453 1454 1455 1456 1458 1460 1462 1464 1465 1467 1468 1470 1472 1473 1475 1476 1477 1478 1479 1480 1481 1482 1482 1482 1482 1481
1476 1472 1471 1465 1462 1461 1458 1456 1455 1453 1452 1451 1451 1450 1450 1449 1450 1450 1451 1451 1452 1453 1455 1456 1458 1460 1462 1463 1465 1467 1468 1470 1471 1473 1474 1475 1476 1477 1478 1479 1479 1478 1478 1478
1474 1470 1467 1463 1460 1458 1456 1454 1452 1451 1450 1449 1448 1448 1447 1447 1447 1447 1448 1448 1449 1450 1451 1452 1454 1455 1457 1459 1461 1462 1464 1466 1468 1469 1470 1471 1472 1473 1474 1475 1475 1475 1475 1474
1470 1466 1462 1459 1457 1454 1452 1450 1448 1447 1446 1445 1445 1444 1444 1444 1444 1444 1444 1445 1445 1446 1446 1447 1448 1450 1452 1454 1455 1457 1459 1461 1462 1464 1465 1467 1468 1469 1470 1470 1471 1471 1471 1470
1465 1463 1460 1455 1453 1450 1448 1446 1445 1443 1442 1442 1441 1441 1440 1440 1440 1440 1440 1440 1440 1441 1441 1442 1443 1445 1446 1448 1449 1451 1453 1454 1456 1458 1460 1461 1462 1463 1464 1465 1465 1466 1466 1466
1462 1458 1455 1452 1449 1447 1445 1443 1441 1440 1439 1438 1437 1437 1437 1436 1436 1436 1436 1436 1436 1436 1436 1437 1438 1439 1440 1441 1443 1444 1446 1448 1450 1452 1453 1455 1456 1457 1458 1459 1460 1460 1461 1461
1459 1455 1452 1449 1446 1444 1442 1440 1438 1437 1435 1435 1434 1433 1433 1432 1432 1432 1431 1431 1431 1431 1431 1432 1432 1433 1434 1435 1436 1438 1439 1441 1443 1444 1446 1447 1449 1450 1451 1452 1453 1454 1455 1456
1459 1455 1452 1448 1445 1442 1439 1437 1435 1434 1432 1431 1431 1430 1429 1428 1428 1428 1427 1427 1427 1427 1427 1427 1427 1428 1429 1430 1431 1432 1433 1434 1435 1437 1438 1440 1441 1443 1444 1445 1446 1448 1449 1449
1456 1453 1449 1446 1443 1440 1438 1435 1433 1431 1430 1428 1427 1426 1426 1425 1424 1424 1423 1423 1423 1423 1423 1423 1423 1423 1424 1425 1426 1426 1427 1428 1429 1430 1431 1433 1434 1435 1437 1438 1439 1440 1442 1443
1454 1451 1448 1444 1441 1439 1436 1433 1431 1429 1428 1426 1425 1424 1423 1422 1422 1421 1420 1420 1419 1419 1419 1419 1419 1419 1419 1420 1420 1421 1422 1422 1423 1424 1425 1426 1427 1428 1430 1431 1432 1434 1435 1436
1452 1449 1446 1443 1440 1437 1435 1432 1430 1428 1426 1425 1423 1422 1421 1420 1419 1419 1418 1418 1417 1416 1416 1415 1415 1415 1415 1415 1415 1416 1416 1417 1417 1418 1418 1419 1420 1421 1423 1424 1426 1427 1429 1430
1449 1446 1443 1441 1438 1436 1433 1431 1429 1427 1425 1423 1422 1421 1420 1419 1418 1417 1416 1415 1414 1413 1413 1412 1411 1411 1411 1411 1411 1411 1411 1412 1412 1412 1413 1413 1414 1415 1417 1418 1420 1422 1423 1424
1446 1443 1440 1438 1436 1434 1431 1429 1427 1425 1424 1422 1421 1420 1418 1417 1416 1415 1414 1413 1412 1411 1410 1409 1408 1408 1407 1407 1407 1407 1407 1407 1407 1408 1408 1409 1409 1410 1412 1413 1415 1416 1418 1419
1442 1439 1437 1434 1432 1430 1429 1427 1425 1424 1422 1421 1419 1418 1417 1416 1414 1413 1412 1411 1410 1409 1408 1407 1406 1405 1404 1404 1404 1403 1403 1403 1403 1403 1404 1404 1405 1406 1408 1409 1410 1411 1413 1414
1437 1434 1432 1430 1428 1427 1425 1424 1423 1421 1420 1419 1417 1416 1415 1414 1413 1411 1410 1409 1408 1407 1405 1404 1403 1403 1402 1401 1401 1400 1400 1400 1400 1400 1400 1401 1401 1402 1404 1405 1406 1407 1408 1408
1432 1429 1427 1425 1423 1422 1421 1420 1419 1418 1417 1416 1415 1414 1412 1411 1410 1409 1408 1407 1405 1404 1403 1402 1401 1400 1399 1398 1398 1397 1397 1396 1396 1396 1397 1397 1398 1399 1399 1400 1401 1402 1403 1403
1426 1424 1421 1419 1418 1417 1415 1414 1413 1413 1413 1412 1411 1411 1410 1409 1408 1407 1406 1405 1403 1402 1401 1400 1399 1397 1396 1396 1395 1394 1394 1393 1393 1393 1393 1393 1394 1394 1395 1395 1396 1396 1397 1397